Location: Boiro
(42.6475°N, 8.8834°W)
Time: 19:42:47
(UTC+01:00)

Vanguard 1 Rocket - Visible Passes

Search period start: 30 November 2021 00:00
Search period end: 10 December 2021 00:00
Orbit: 650 x 4226 km, 34.3° (Epoch: 29 November)

Date Brightness Start Highest point End Pass type
(mag) Time Alt. Az. Time Alt. Az. Time Alt. Az.
30 Nov 11.0 02:27:25 15° ESE 02:27:25 15° ESE 02:31:50 10° E visible
30 Nov 9.8 04:44:42 48° S 04:47:19 51° SSE 05:08:01 10° E visible
30 Nov 10.4 07:02:00 16° WSW 07:16:20 67° S 07:41:56 10° ESE visible
01 Dec 10.2 03:37:34 36° SE 03:37:34 36° SE 03:51:41 10° E visible
01 Dec 9.9 05:54:51 37° SW 06:02:27 64° SSE 06:26:13 10° E visible
02 Dec 10.9 02:30:24 17° E 02:30:24 17° E 02:35:01 10° E visible
02 Dec 9.6 04:47:41 53° S 04:49:27 55° SSE 05:10:07 10° E visible
02 Dec 10.4 07:04:58 17° W 07:18:33 66° S 07:43:52 10° ESE visible
03 Dec 10.1 03:40:30 38° ESE 03:40:30 38° ESE 03:53:58 10° E visible
03 Dec 9.7 05:57:47 39° WSW 06:04:43 65° S 06:28:14 10° E visible
03 Dec 10.8 08:17:30 10° W 08:35:05 58° SSW 09:00:19 10° SE visible
04 Dec 10.9 02:33:17 18° E 02:33:17 18° E 02:37:48 10° E visible
04 Dec 9.5 04:50:34 58° S 04:51:43 59° SSE 05:12:11 10° E visible
04 Dec 10.3 07:07:51 18° W 07:20:47 63° S 07:45:41 10° ESE visible
05 Dec 10.1 03:43:21 40° ESE 03:43:21 40° ESE 03:56:10 10° E visible
05 Dec 9.7 06:00:37 40° WSW 06:07:03 65° S 06:30:10 10° ESE visible
06 Dec 10.9 02:36:07 18° E 02:36:07 18° E 02:40:21 10° E visible
06 Dec 9.4 04:53:23 60° S 04:54:03 61° S 05:14:13 10° E visible
06 Dec 10.3 07:10:40 19° W 07:23:02 60° SSW 07:47:21 10° ESE visible
07 Dec 10.0 03:46:08 41° ESE 03:46:08 41° ESE 03:58:19 10° E visible
07 Dec 9.6 06:03:25 41° WSW 06:09:25 63° S 06:32:01 10° ESE visible
07 Dec 10.7 08:23:03 10° W 08:39:11 47° SSW 09:02:52 10° SE visible
08 Dec 10.8 02:38:53 18° E 02:38:53 18° E 02:42:47 10° E visible
08 Dec 9.4 04:56:09 61° S 04:56:29 61° S 05:16:12 10° E visible
08 Dec 10.2 07:13:27 18° W 07:25:17 55° SSW 07:48:48 10° SE visible
09 Dec 10.0 03:48:55 40° ESE 03:48:55 40° ESE 04:00:27 10° E visible
09 Dec 9.6 06:06:11 41° WSW 06:11:50 59° S 06:33:44 10° ESE visible
